Powrót do katalogu

ALMUNTHER

AktywnyKrótkofalarstwoSSO
NORAD 63240·PAYLOAD·🇧🇭 Bahrain

Wystrzelony Mar 15, 2025 z Vandenberg Space Force Base

Loading…

Następne Przeloty (najbliższe 24 godziny)

TLE

ŚwieżeSource: Space-Track

Epoka: Sep 14, 2026, 12:31 UTC

1 63240U 25052AG  26257.52217587  .00013668  00000-0  41047-3 0  9991
2 63240  97.3740 152.1915 0006078 169.7737 190.3631 15.34532666 83704

Śledź ALMUNTHER w czasie rzeczywistym z AllMySat

Download on the App Store